| time (UTC) | temp C | wind direction | speed KPH | gust KPH | rain 1hr cm | rain 24hr cm | rain mn cm | humidity % | barometer mb |
| 20260508005119 | 17 | 0.0 | 0.0 | 0.00 | 0.00 | 0.00 | 57 | 1010.1 | |
| 20260508003114 | 17 | 0.0 | 0.0 | 0.00 | 0.00 | 0.00 | 57 | 1010.1 | |
| 20260508001108 | 18 | 0.0 | 0.0 | 0.00 | 0.00 | 0.00 | 56 | 1010.3 | |
| 20260507235103 | 18 | 0.0 | 0.0 | 0.00 | 0.00 | 0.00 | 57 | 1010.5 | |
| 20260507233058 | 18 | 0.0 | 0.0 | 0.00 | 0.00 | 0.00 | 57 | 1010.7 | |
| 20260507231052 | 18 | 0.0 | 0.0 | 0.00 | 0.00 | 0.00 | 61 | 1011.0 | |
| 20260507225047 | 18 | 0.0 | 0.0 | 0.00 | 0.00 | 0.00 | 60 | 1011.1 | |
| 20260507223042 | 18 | 0.0 | 0.0 | 0.00 | 0.00 | 0.00 | 59 | 1011.1 | |
| 20260507221036 | 18 | 0.0 | 0.0 | 0.00 | 0.00 | 0.00 | 61 | 1011.3 | |
| 20260507213026 | 19 | 0.0 | 0.0 | 0.00 | 0.00 | 0.00 | 68 | 1011.5 | |
| 20260507211020 | 19 | 0.0 | 0.0 | 0.00 | 0.00 | 0.00 | 68 | 1011.5 | |
| 20260507205016 | 19 | 0.0 | 0.0 | 0.00 | 0.00 | 0.00 | 67 | 1011.5 | |
| 20260507203011 | 20 | 0.0 | 0.0 | 0.00 | 0.00 | 0.00 | 66 | 1011.6 | |
| 20260507201005 | 20 | 0.0 | 0.0 | 0.00 | 0.00 | 0.00 | 64 | 1011.8 | |
| 20260507195000 | 20 | 0.0 | 0.0 | 0.00 | 0.00 | 0.00 | 64 | 1011.6 | |
| 20260507192955 | 20 | 0.0 | 0.0 | 0.00 | 0.00 | 0.00 | 63 | 1011.5 | |
| 20260507190950 | 20 | 0.0 | 0.0 | 0.00 | 0.00 | 0.00 | 61 | 1011.5 | |
| 20260507184944 | 20 | 0.0 | 0.0 | 0.00 | 0.00 | 0.00 | 59 | 1011.3 | |
| 20260507182939 | 21 | 0.0 | 0.0 | 0.00 | 0.00 | 0.00 | 57 | 1011.2 | |
| 20260507180934 | 21 | 0.0 | 0.0 | 0.00 | 0.00 | 0.00 | 55 | 1011.3 | |
| 20260507174928 | 22 | 0.0 | 0.0 | 0.00 | 0.00 | 0.00 | 55 | 1011.1 | |
| 20260507172923 | 23 | 0.0 | 0.0 | 0.00 | 0.00 | 0.00 | 52 | 1011.1 | |
| 20260507170917 | 24 | 0.0 | 0.0 | 0.00 | 0.00 | 0.00 | 47 | 1011.0 | |
| 20260507164912 | 23 | 0.0 | 0.0 | 0.00 | 0.00 | 0.00 | 40 | 1011.4 | |
| 20260507162905 | 24 | 0.0 | 0.0 | 0.00 | 0.00 | 0.00 | 39 | 1011.5 | |
| 20260507154854 | 24 | 0.0 | 0.0 | 0.00 | 0.00 | 0.00 | 38 | 1011.5 | |
| 20260507152849 | 24 | 0.0 | 0.0 | 0.00 | 0.00 | 0.00 | 37 | 1011.8 | |
| 20260507150844 | 23 | 0.0 | 0.0 | 0.00 | 0.00 | 0.00 | 40 | 1011.8 | |
| 20260507144839 | 23 | 0.0 | 0.0 | 0.00 | 0.00 | 0.00 | 39 | 1012.1 | |
| 20260507142833 | 22 | 0.0 | 0.0 | 0.00 | 0.00 | 0.00 | 43 | 1011.8 | |
| 20260507140829 | 22 | 0.0 | 0.0 | 0.00 | 0.00 | 0.00 | 44 | 1012.2 | |
| 20260507134823 | 22 | 0.0 | 0.0 | 0.00 | 0.00 | 0.00 | 45 | 1012.5 | |
| 20260507132818 | 22 | 0.0 | 0.0 | 0.00 | 0.00 | 0.00 | 46 | 1012.8 | |
| 20260507130813 | 22 | 0.0 | 0.0 | 0.00 | 0.00 | 0.00 | 48 | 1013.0 | |
| 20260507124807 | 22 | 0.0 | 0.0 | 0.00 | 0.00 | 0.00 | 49 | 1013.2 | |
| 20260507122803 | 22 | 0.0 | 0.0 | 0.00 | 0.00 | 0.00 | 50 | 1013.3 | |
| 20260507114751 | 22 | 0.0 | 0.0 | 0.00 | 0.00 | 0.00 | 50 | 1013.5 | |
| 20260507112747 | 21 | 0.0 | 0.0 | 0.00 | 0.00 | 0.00 | 51 | 1013.7 | |
| 20260507110741 | 21 | 0.0 | 0.0 | 0.00 | 0.00 | 0.00 | 53 | 1013.9 | |
| 20260507104736 | 21 | 0.0 | 0.0 | 0.00 | 0.00 | 0.00 | 54 | 1014.1 | |
| 20260507102730 | 21 | 0.0 | 0.0 | 0.00 | 0.00 | 0.00 | 56 | 1014.2 | |
| 20260507100726 | 20 | 0.0 | 0.0 | 0.00 | 0.00 | 0.00 | 56 | 1014.6 | |
| 20260507094720 | 20 | 0.0 | 0.0 | 0.00 | 0.00 | 0.00 | 57 | 1014.6 | |
| 20260507092715 | 20 | 0.0 | 0.0 | 0.00 | 0.00 | 0.00 | 57 | 1014.6 | |
| 20260507090710 | 20 | 0.0 | 0.0 | 0.00 | 0.00 | 0.00 | 58 | 1014.5 | |
| 20260507084704 | 20 | 0.0 | 0.0 | 0.00 | 0.00 | 0.00 | 61 | 1014.6 | |
| 20260507082659 | 19 | 0.0 | 0.0 | 0.00 | 0.00 | 0.00 | 61 | 1014.6 | |
| 20260507080654 | 18 | 0.0 | 0.0 | 0.00 | 0.00 | 0.00 | 62 | 1015.0 | |
| 20260507072643 | 18 | 0.0 | 0.0 | 0.00 | 0.00 | 0.00 | 65 | 1015.1 | |
| 20260507070637 | 18 | 0.0 | 0.0 | 0.00 | 0.00 | 0.00 | 67 | 1015.2 | |
| 20260507064632 | 17 | 0.0 | 0.0 | 0.00 | 0.00 | 0.00 | 69 | 1015.1 | |
| 20260507062627 | 17 | 0.0 | 0.0 | 0.00 | 0.00 | 0.00 | 71 | 1015.0 | |
| 20260507060623 | 17 | 0.0 | 0.0 | 0.00 | 0.00 | 0.00 | 70 | 1014.8 | |
| 20260507054616 | 16 | 0.0 | 0.0 | 0.00 | 0.00 | 0.00 | 75 | 1014.9 | |
| 20260507052611 | 16 | 0.0 | 0.0 | 0.00 | 0.00 | 0.00 | 78 | 1014.9 | |
| 20260507050607 | 15 | 0.0 | 0.0 | 0.00 | 0.00 | 0.00 | 79 | 1014.9 | |
| 20260507044601 | 15 | 0.0 | 0.0 | 0.00 | 0.00 | 0.00 | 79 | 1014.7 | |
| 20260507040550 | 15 | 0.0 | 0.0 | 0.00 | 0.00 | 0.00 | 79 | 1014.7 | |
| 20260507034545 | 15 | 0.0 | 0.0 | 0.00 | 0.00 | 0.00 | 81 | 1014.6 | |
| 20260507032540 | 15 | 0.0 | 0.0 | 0.00 | 0.00 | 0.00 | 79 | 1014.7 | |
| 20260507030534 | 15 | 0.0 | 0.0 | 0.00 | 0.00 | 0.00 | 80 | 1014.5 | |
| 20260507024529 | 15 | 0.0 | 0.0 | 0.00 | 0.00 | 0.00 | 80 | 1014.6 | |
| 20260507022523 | 15 | 0.0 | 0.0 | 0.00 | 0.00 | 0.00 | 80 | 1014.8 | |
| 20260507020518 | 15 | 0.0 | 0.0 | 0.00 | 0.00 | 0.00 | 81 | 1014.7 | |
| 20260507014514 | 15 | 0.0 | 0.0 | 0.00 | 0.00 | 0.00 | 81 | 1014.7 | |
| 20260507012508 | 15 | 0.0 | 0.0 | 0.00 | 0.00 | 0.00 | 80 | 1014.5 | |
| 20260507010502 | 15 | 0.0 | 0.0 | 0.00 | 0.00 | 0.00 | 79 | 1014.5 |